Snowfall_Accumulation
0.8 0.8 1.0 1.0 1.0 1.2 1.6 2.5 4.2 3.3 0.9 0.3 0.3 0.3 0.4 0.3 0.3 0.4 0.3 0.2 0.2 0.4 0.5 0.4 0.3 0.1 0.1 0.1 0.0 0.0 0.0 0.0 0.1 0.1 0.0 0.1 0.1 0.0
1.0 1.0 1.1 1.1 1.1 1.1 1.4 1.6 2.7 4.3 3.1 0.6 0.3 0.3 0.3 0.3 0.3 0.4 0.3 0.2 0.3 0.3 0.3 0.4 0.3 0.2 0.2 0.1 0.1 0.1 0.0 0.0 0.1 0.1 0.1 0.0 0.1 0.1
1.0 1.2 1.3 1.3 1.5 1.3 1.5 1.7 2.0 3.3 4.0 0.9 0.2 0.2 0.4 0.4 0.3 0.3 0.2 0.2 0.1 0.2 0.2 0.3 0.3 0.3 0.3 0.2 0.1 0.1 0.1 0.1 0.0 0.1 0.1 0.0 0.0 0.0
1.4 1.6 1.6 1.5 1.7 1.7 1.9 1.9 2.0 2.5 3.6 2.4 0.6 0.4 0.4 0.4 0.3 0.3 0.2 0.2 0.2 0.1 0.1 0.3 0.3 0.3 0.3 0.3 0.2 0.2 0.2 0.1 0.1 0.1 0.1 0.0 0.0 0.0
1.7 2.0 2.1 2.3 2.5 2.2 2.3 2.3 2.0 1.8 2.3 2.8 1.4 0.6 0.6 0.5 0.4 0.3 0.2 0.2 0.1 0.1 0.1 0.1 0.2 0.3 0.3 0.3 0.3 0.3 0.3 0.2 0.1 0.1 0.1 0.1 0.0 0.0
1.9 2.2 2.6 3.1 3.5 3.6 3.6 3.0 2.4 2.6 2.7 3.1 2.3 1.4 1.1 0.7 1.0 1.1 0.8 0.3 0.2 0.1 0.1 0.1 0.1 0.2 0.3 0.4 0.3 0.3 0.3 0.3 0.3 0.2 0.2 0.1 0.2 0.1
3.0 2.7 2.5 2.8 3.5 4.8 5.5 5.5 4.9 5.7 4.9 4.9 4.0 2.9 2.2 2.3 2.1 1.4 1.7 1.0 0.4 0.2 0.3 0.1 0.1 0.1 0.1 0.1 0.1 0.1 0.4 0.4 0.3 0.3 0.2 0.1 0.1 0.1
4.3 3.5 2.8 2.6 2.5 2.6 3.4 4.1 4.6 6.7 7.3 7.2 6.6 5.9 3.9 2.6 2.4 2.4 2.9 3.1 2.2 0.5 0.5 0.3 0.1 0.1 0.1 0.1 0.1 0.1 0.3 0.4 0.4 0.3 0.2 0.2 0.2 0.2
3.6 3.2 2.9 2.5 2.3 2.5 3.0 2.2 2.6 3.3 5.0 6.6 8.5 6.8 4.7 3.9 3.6 4.0 3.6 3.8 2.5 1.2 1.5 1.5 0.3 0.2 0.1 0.0 0.1 0.2 0.3 0.5 0.5 0.3 0.4 0.3 0.4 0.3
2.9 3.1 3.2 3.0 2.6 3.0 3.8 4.1 3.7 3.5 4.1 5.7 7.4 6.2 4.7 4.4 4.3 5.6 5.3 5.7 3.4 1.6 1.8 3.2 0.9 0.4 0.1 0.0 0.1 0.2 0.3 0.5 0.6 0.6 0.4 0.4 0.4 0.5
2.6 3.6 4.0 3.5 3.1 3.5 5.1 5.5 4.1 3.2 2.9 3.8 4.7 5.2 4.4 4.6 6.3 8.1 11.1 11.4 8.6 2.8 1.9 3.4 1.5 0.9 0.3 0.2 0.1 0.2 0.3 0.3 0.4 0.5 0.6 0.5 0.5 0.6
2.5 3.4 5.2 4.9 4.2 3.8 5.1 5.7 5.3 3.5 3.0 3.1 3.4 3.6 3.9 4.5 5.4 7.8 9.5 11.5 10.3 7.2 3.6 2.8 2.6 3.2 3.1 0.7 0.3 0.2 0.2 0.2 0.3 0.4 0.5 0.6 0.6 0.7
3.3 4.0 5.1 4.6 4.0 3.7 4.0 5.0 5.3 4.5 4.2 4.3 4.0 3.7 4.0 4.7 5.5 6.9 7.8 9.5 10.5 8.7 6.0 5.1 5.2 4.8 5.3 2.8 0.8 0.3 0.3 0.4 0.3 0.3 0.3 0.5 0.6 0.7
3.7 3.3 3.9 3.9 3.9 3.4 3.4 3.1 3.3 3.9 4.6 4.2 3.5 3.0 3.0 3.7 4.8 6.0 8.1 8.9 9.0 8.5 6.5 6.6 8.0 6.7 7.0 5.7 2.9 1.1 0.7 0.5 0.5 0.4 0.4 0.4 0.5 0.6
3.8 4.8 4.1 3.2 2.8 2.5 1.8 2.2 2.6 3.3 3.8 3.8 2.9 2.1 1.9 2.5 3.3 4.5 6.0 7.1 7.6 7.5 6.1 5.0 6.6 6.4 7.7 7.4 4.1 2.4 1.8 0.8 0.6 0.7 0.6 0.6 0.6 0.7
2.8 3.5 3.3 2.3 1.7 1.3 1.2 1.3 1.6 2.4 3.1 3.4 2.6 1.8 1.6 2.0 2.8 3.7 5.3 6.7 8.3 7.9 6.8 5.3 5.1 6.6 7.8 6.2 5.4 4.1 2.7 2.0 1.2 1.0 0.9 0.7 0.6 0.5
4.6 4.3 3.6 2.7 2.3 1.8 1.3 1.0 1.1 1.7 2.4 2.5 2.5 2.4 2.2 2.2 2.5 3.1 4.7 6.3 8.1 8.4 8.3 7.4 7.2 7.6 8.2 8.2 7.6 5.3 3.4 2.4 1.6 1.5 1.6 1.4 0.9 0.7
4.6 5.0 3.3 2.4 2.1 1.9 1.7 1.4 1.3 1.4 1.6 2.1 2.4 2.5 2.5 2.5 2.6 2.9 4.3 6.1 7.2 7.4 7.9 8.3 9.4 10.9 11.8 11.0 8.5 6.4 4.4 2.7 2.1 1.7 1.8 1.9 1.4 0.8
3.6 3.0 2.1 1.8 1.7 1.6 1.6 1.6 1.4 1.1 1.4 2.0 2.3 2.4 2.7 3.0 3.2 3.4 4.1 5.3 6.3 6.8 7.4 8.3 9.9 13.0 15.1 13.5 9.5 6.9 5.0 3.2 2.6 2.2 1.8 1.7 1.4 1.0
1.9 2.0 1.7 1.5 1.6 1.6 1.6 1.6 1.5 1.4 1.6 2.0 2.1 2.2 2.7 3.6 3.8 3.6 4.0 5.3 6.2 7.0 7.7 8.6 10.0 11.1 12.7 11.1 9.6 8.4 5.2 4.2 3.4 2.9 2.1 1.6 1.3 0.9
1.4 1.5 1.5 1.7 1.9 1.8 1.7 1.6 1.8 1.8 1.7 1.9 2.0 2.1 2.5 3.6 3.9 3.4 3.8 4.9 6.8 8.0 8.3 8.5 7.5 8.6 10.1 11.5 13.0 12.2 9.3 5.4 3.2 3.0 2.8 3.1 3.5 3.4
1.8 1.9 1.7 1.7 2.0 2.0 2.1 2.0 2.0 1.7 1.6 1.9 2.0 2.1 2.5 3.4 3.8 3.6 4.2 5.2 6.2 7.0 7.5 8.0 7.6 10.4 14.3 15.5 13.9 12.2 11.3 8.9 7.6 4.7 3.1 2.6 3.1 3.1
2.4 2.3 2.0 1.8 1.9 2.1 2.3 2.1 2.0 1.7 1.6 1.9 2.1 2.3 2.7 3.4 3.5 3.9 4.4 5.0 5.9 6.5 7.1 8.2 9.8 12.1 13.9 13.8 13.6 12.4 10.7 8.6 8.4 8.2 7.8 3.1 2.0 1.6